Change the Weather History Date:

Wednesday, August 21, 2013

  Actual Average Record
Temperature  
Mean Temperature 81 °F -  
Max Temperature 92 °F 82 °F 97 °F (2012)
Min Temperature 70 °F 60 °F 62 °F (1996)
Cooling Degree Days 16    
Growing Degree Days 31 (Base 50)    
Moisture  
Dew Point 56 °F    
Average Humidity 44    
Maximum Humidity 69    
Minimum Humidity 18    
Precipitation  
Precipitation 0.00 in 0.07 in - ()
Sea Level Pressure  
Sea Level Pressure 29.99 in    
Wind  
Wind Speed 10 mph ()    
Max Wind Speed 16 mph    
Max Gust Speed -    
Averages and records for this station are not official NWS values.
T = Trace of Precipitation, MM = Missing Value Source: Averaged Metar Reports

Daily Weather History Graph

Daily Weather History Graph

Search for Another Location

Airport or City:

Trip Planner

Search our weather history database for the weather conditions in past years. The results will help you decide how hot, cold, wet, or windy it might be!

Date:

Astronomy

Aug. 21, 2013 Rise Set
Actual Time 6:28 AM CEST 8:08 PM CEST
Civil Twilight 5:58 AM CEST 8:38 PM CEST
Nautical Twilight 5:22 AM CEST 9:14 PM CEST
Astronomical Twilight 4:43 AM CEST 9:53 PM CEST
Moon 8:04 PM CEST (8/21) 6:51 AM CEST (8/21)
Length of Visible Light 14h 39m
Length of Day
13h 39m
Full, 100% of the Moon is Illuminated
Aug 21
Full
Aug 28
Last Quarter
Sep 5
New
Sep 12
First Quarter
Sep 19
Full

Hourly Weather History & Observations

Time (CEST) Temp. Heat Index Dew Point Humidity Pressure Visibility Wind Dir Wind Speed Gust Speed Precip Events Conditions
12:55 AM 73.4 °F - 59.0 °F 61% 29.98 in - North - - N/A   Clear
1:55 AM 73.4 °F - 57.2 °F 57% 29.98 in - North - - N/A   Clear
2:00 AM 73 °F - 58 °F 49% 30.00 in 25 mi NNE 16.1 mph - -   Scattered Clouds
2:55 AM 73.4 °F - 59.0 °F 61% 29.98 in - North - - N/A   Clear
3:55 AM 71.6 °F - 59.0 °F 64% 29.98 in - North - - N/A   Clear
4:55 AM 71.6 °F - 59.0 °F 64% 29.98 in - North - - N/A   Clear
5:55 AM 71.6 °F - 60.8 °F 69% 29.98 in - North - - N/A   Clear
6:55 AM 71.6 °F - 59.0 °F 64% 29.98 in - North - - N/A   Clear
7:55 AM 73.4 °F - 59.0 °F 61% 30.01 in - North - - N/A   Clear
8:00 AM 74 °F - 59 °F 49% 30.01 in 25 mi North 13.8 mph - -   Scattered Clouds
8:55 AM 78.8 °F - 59.0 °F 51% 30.01 in - North - - N/A   Clear
9:55 AM 80.6 °F 80.8 °F 57.2 °F 45% 30.01 in - North - - N/A   Clear
10:55 AM 84.2 °F 83.0 °F 55.4 °F 37% 30.01 in - North - - N/A   Clear
11:55 AM 86.0 °F 84.5 °F 55.4 °F 35% 30.01 in - North - - N/A   Partly Cloudy
12:55 PM 87.8 °F 85.7 °F 53.6 °F 31% 30.01 in - North - - N/A   Partly Cloudy
1:55 PM 89.6 °F - 51.8 °F 27% 29.98 in - North - - N/A   Partly Cloudy
2:00 PM 90 °F - 52 °F 18% 30.00 in 25 mi North 8.1 mph - -   Scattered Clouds
2:55 PM 89.6 °F - 51.8 °F 27% 29.98 in - North - - N/A   Partly Cloudy
3:55 PM 91.4 °F - 51.8 °F 26% 29.98 in - North - - N/A   Partly Cloudy
4:55 PM 91.4 °F - 51.8 °F 26% 29.95 in - North - - N/A   Partly Cloudy
5:55 PM 89.6 °F - 51.8 °F 27% 29.95 in - North - - N/A   Partly Cloudy
6:55 PM 87.8 °F 85.7 °F 53.6 °F 31% 29.95 in - North - - N/A   Partly Cloudy
7:55 PM 84.2 °F - 51.8 °F 33% 29.95 in - North - - N/A   Clear
8:00 PM 85 °F - 53 °F 23% 29.97 in 25 mi NNE 12.7 mph - -  
8:55 PM 82.4 °F 81.4 °F 53.6 °F 37% 29.98 in - North - - N/A   Clear
9:55 PM 80.6 °F 80.5 °F 55.4 °F 42% 29.98 in - North - - N/A   Clear
10:55 PM 77.0 °F - 55.4 °F 47% 29.98 in - North - - N/A   Clear
11:55 PM 73.4 °F - 59.0 °F 61% 30.01 in - North - - N/A   Clear